Location: Algiers Regional Library
(29.9237°N, 90.0142°W)
Time: 03:55:40
(UTC+00:00)

Daily predictions for brighter satellites

Satellite Brightness Start Highest point End
(mag) Time Altitude Azimuth Time Altitude Azimuth Time Altitude Azimuth
ARGOS 4.1 01:14:35 10° S 01:19:51 52° W 01:25:08 10° NNW
Cosmos 1356 3.5 01:17:45 10° S 01:21:07 81° W 01:24:31 10° N
Cosmos 2082 Rocket 3.7 01:21:54 10° SE 01:24:44 14° E 01:27:34 10° ENE
Cosmos 1602 Rocket 4.2 01:20:45 10° SSW 01:25:05 62° W 01:29:24 10° N
Hubble Space Telescope 1.3 01:23:29 10° SW 01:27:22 41° SSE 01:31:16 10° E
Cosmos 1833 Rocket 3.2 01:23:06 10° S 01:28:14 37° ESE 01:33:22 10° NE
H-2A R/B 4.5 01:24:44 10° SSW 01:29:01 24° W 01:33:17 10° NW
Cosmos 1953 Rocket 4.5 01:25:37 10° SSE 01:29:31 30° E 01:33:25 10° NNE
Cosmos 1892 2.8 01:27:15 10° S 01:30:57 54° E 01:34:39 10° NNE
USA 186 2.0 01:31:06 10° SSE 01:34:20 51° ENE 01:37:27 10° N
Cosmos 1689 Rocket 2.1 01:34:42 10° N 01:37:27 73° WNW 01:40:10 10° SSW
Cosmos 1758 Rocket 3.7 01:34:28 10° S 01:38:44 76° W 01:43:03 10° N
Cosmos 836 Rocket 4.5 01:35:56 10° S 01:41:10 75° ESE 01:46:23 10° NNE
Elektron 1 4.0 01:38:26 10° NNW 01:41:17 85° WSW 01:45:23 10° SSE
deb Kosmos-1763 4.0 01:38:37 10° SSW 01:42:07 85° WNW 01:45:38 10° NNE
Cosmos 1125 Rocket 4.5 01:39:48 10° N 01:44:30 31° ENE 01:48:24 14° SE
NOSS 3-2 (A) 4.3 01:37:31 10° NNW 01:45:31 71° ENE 01:54:07 11° SE
Okean-O 4.0 01:42:37 10° SSW 01:46:44 39° W 01:50:54 10° NNW
COSMOS 2406 3.3 01:45:49 10° S 01:51:19 57° ESE 01:56:52 10° NNE
Cosmos 2058 3.8 01:48:48 11° SSE 01:52:05 28° E 01:55:40 10° NNE
Cosmos 2034 Rocket 4.3 01:46:58 10° N 01:53:09 70° W 01:59:24 10° S
Cosmos 1825 2.4 01:49:51 10° SSE 01:53:24 44° E 01:56:59 10° NNE
Cosmos 1869 3.6 01:50:22 10° N 01:54:04 43° E 01:56:56 15° SSE
NOSS 3-4 (A) 4.0 01:48:50 10° SW 01:54:29 58° WNW 02:00:22 10° NNE
NOSS 3-4 (C) 4.0 01:48:56 10° SW 01:54:35 59° WNW 02:00:28 10° NNE
GOES 2 Rocket 4.4 01:52:09 10° W 01:56:49 39° SSW 02:01:13 16° SE
OBJECT-B 0.8 01:55:02 10° S 01:58:13 79° W 02:01:24 10° NNW
USA 306 4.3 01:54:41 10° NNW 01:58:18 26° NE 02:00:51 16° E
Meteor 1-27 4.2 01:52:48 10° N 01:58:35 80° E 02:04:24 10° S
SL-19 R/B 3.7 01:57:06 15° SSE 01:59:34 76° ENE 02:03:00 10° N
Cosmos 405 Rocket 3.7 01:56:22 10° SSW 02:00:05 50° W 02:03:55 10° N
SAR-Lupe-4 3.8 01:56:48 10° N 02:00:22 72° WNW 02:03:55 10° SSW
SJ-6B 2.6 01:57:07 10° SSE 02:00:51 85° ENE 02:04:35 10° N
ATLAS 2AS CENTAUR R/B 3.0 01:55:03 10° SSW 02:02:52 78° ESE 02:10:45 10° NNE
Atlas Centaur 2 1.7 01:59:05 10° SW 02:02:54 37° SSE 02:04:35 23° ESE
USA 32 4.1 02:02:06 10° N 02:07:16 60° E 02:11:42 14° SSE
Centaur D-1AR AC-39 2.7 02:01:42 10° WSW 02:07:35 29° S 02:09:08 21° SSE
ATLAS 2A CENTAUR R/B 4.4 01:19:31 10° W 02:08:14 66° SSW 02:16:04 20° SE
Cosmos 1656 4.2 02:03:09 10° N 02:08:28 42° ENE 02:11:34 22° SE
Resurs 01 Rocket 2.6 02:08:50 22° ESE 02:10:31 29° ENE 02:14:21 10° NNE
Cosmos 1437 Rocket 2.9 02:08:32 10° N 02:12:18 52° E 02:14:12 26° SSE
NOSS 3-2 (C) 4.3 02:04:37 10° NNW 02:12:35 64° ENE 02:18:50 21° SE
Cosmos 1408 4.0 02:10:45 10° SSW 02:14:11 38° W 02:17:36 10° NNW
RESURS DK-1 2.8 02:17:57 27° SSE 02:19:33 38° ESE 02:23:24 10° NE
Cosmos 1437 4.2 02:17:49 10° NNE 02:19:12 19° NE 02:19:12 19° NE
Cosmos-2242 3.9 02:19:58 10° NNW 02:24:05 47° W 02:28:08 10° SSW
Cosmos 1633 3.7 02:29:09 27° ENE 02:29:09 27° ENE 02:31:31 10° NNE
USA 267 3.3 02:24:15 10° NE 02:30:39 55° SE 02:37:02 10° SSW
CENTAUR R/B 3.3 02:22:54 10° NNW 02:31:32 84° WSW 02:37:50 22° SSE
Sakura Rocket 4.2 02:23:12 10° W 02:31:59 81° S 02:35:43 28° E
Cosmos 44 Rocket 3.8 02:27:26 10° SW 02:32:30 66° WNW 02:37:42 10° NNE
Meteor 2-2 Rocket 4.3 02:32:02 10° N 02:37:46 63° E 02:40:10 34° SSE
Cosmos 1634 Rocket 4.3 02:32:02 10° NNW 02:38:15 67° W 02:43:52 13° S
Ariane Rocket 3.1 02:37:32 24° S 02:40:36 75° W 02:45:41 10° NNW
IRS-1A Rocket 4.4 02:38:16 21° S 02:42:07 70° WSW 02:47:38 10° NNW
ERS-2 3.9 02:39:27 10° N 02:42:43 32° WNW 02:45:58 10° SW
USA 238 DEB 4.2 02:38:47 10° NW 02:46:10 67° WSW 02:50:46 26° S
USA 238 4.1 02:38:53 10° NW 02:46:16 67° WSW 02:50:51 26° S
ATLAS 2A CENTAUR R/B 3.8 02:27:13 10° WSW 02:47:04 67° S 02:49:13 39° ESE
Cosmos 2180 Rocket 4.4 02:42:50 10° N 02:48:58 66° E 02:51:12 40° SSE
SEDSat Delta rocket 2.7 02:45:00 10° W 02:49:01 81° N 02:49:48 57° ENE
OAO 2 Rocket 3.9 02:46:40 10° WNW 02:51:33 52° N 02:53:28 33° ENE
CZ-2C R/B 3.5 02:48:08 10° NNE 02:52:40 79° ESE 02:53:39 54° S
Cosmos 1242 Rocket 2.8 02:50:07 10° NNW 02:53:39 62° W 02:53:50 61° WSW
EPKM 3.6 02:53:04 10° WSW 02:55:16 32° SSW 02:55:16 32° SSW
Cosmos 2221 2.3 02:51:47 10° N 02:56:05 73° E 02:56:12 72° E
USA 307 2.7 02:53:17 10° NW 02:57:33 89° NE 02:57:40 85° SE
Terra 3.8 03:04:43 16° NE 03:04:43 16° NE 03:06:40 10° NNE
IGS 5A 3.9 03:04:14 48° SW 03:04:52 54° W 03:08:56 10° NNW
Cosmos 2082 Rocket 2.8 03:02:45 10° SW 03:08:13 55° WNW 03:13:45 10° N
Hubble Space Telescope 1.5 03:04:17 10° W 03:07:16 45° WSW 03:07:16 45° WSW
Cosmos 1697 Rocket 2.6 03:03:04 10° NNW 03:08:45 72° ENE 03:09:29 63° ESE
SPOT 3 Rocket 3.6 03:09:28 54° S 03:10:37 75° WSW 03:15:51 10° NNW
Cosmos 1606 3.6 03:08:37 10° N 03:11:14 43° N 03:11:14 43° N
USA 305 3.5 03:10:07 10° NW 03:13:42 49° W 03:13:42 49° W
USA 308 3.4 03:10:11 10° NW 03:13:51 55° W 03:13:51 55° W
BREEZE-M R/B 3.0 03:07:22 10° SW 03:16:41 81° SE 03:17:24 63° ENE
Cosmos 2195 Rocket 4.5 03:16:45 57° E 03:16:52 57° E 03:22:50 10° NNE
Cosmos 2151 3.9 03:23:49 42° N 03:23:49 42° N 03:26:41 10° N
Cosmos 1092 Rocket 3.8 03:29:20 75° SE 03:29:49 81° E 03:36:05 10° N
Centaur D AC-29 3.6 03:24:32 10° W 03:34:23 24° SW 03:35:12 23° SW
Meteor 2-3 Rocket 3.7 03:36:27 79° NNE 03:36:27 79° NNE 03:41:45 10° N
GP-B 4.4 03:32:20 10° N 03:34:52 34° NNE 03:34:52 34° NNE
ERS-1 Rocket 3.6 03:40:52 48° NNE 03:40:52 48° NNE 03:44:37 10° N
Spot 2 Rocket 3.8 03:41:46 66° NNW 03:41:46 66° NNW 03:46:12 10° NNW
Cosmos 2369 3.8 03:38:05 10° NNW 03:43:19 74° WNW 03:43:19 74° WNW
Resurs 01 Rocket 3.8 03:46:24 18° WSW 03:46:58 18° W 03:49:59 10° NW
Cosmos 2026 Rocket 3.9 03:49:08 87° NNW 03:49:08 87° NNW 03:55:25 10° N
Cosmos 1980 Rocket 2.5 03:49:14 10° NNW 03:53:52 62° NNW 03:53:52 62° NNW
Cosmos 2322 Rocket 4.2 03:58:30 10° NNE 04:00:59 17° NE 04:00:59 17° NE
ATLAS 3B R/B 2.9 04:13:27 10° NNW 04:20:00 68° NNE 04:20:00 68° NNE
SL-16 R/B 3.7 04:22:19 10° N 04:25:32 30° NNE 04:25:32 30° NNE
Terra 4.1 04:43:36 21° NW 04:43:36 21° NW 04:45:27 10° NNW
Cosmos 2360 Rocket 4.1 05:12:22 10° N 05:14:46 25° N 05:14:46 25° N
Cosmos 2322 Rocket 4.4 05:41:10 10° NNW 05:42:47 19° NW 05:42:47 19° NW
Cosmos 2219 Rocket 4.3 06:09:18 10° N 06:11:15 22° N 06:11:15 22° N
Lacrosse 5 4.4 06:57:57 17° NNE 06:57:57 17° NNE 06:59:08 10° NNE
ATLAS 5 CENTAUR R/B 3.9 06:50:03 10° N 06:54:21 33° NNE 06:54:21 33° NNE
SL-16 R/B 4.1 07:00:09 26° ENE 07:00:09 26° ENE 07:04:57 10° NNE
Resurs 1-4 Rocket 4.1 07:01:17 10° NNE 07:03:26 24° NE 07:03:26 24° NE
Cosmos 2297 Rocket 3.9 07:18:52 27° N 07:18:52 27° N 07:21:36 10° N
Cosmos 2227 Rocket 3.8 07:29:32 30° N 07:29:32 30° N 07:32:28 10° N
ADEOS Rocket 4.3 07:29:11 31° ENE 07:29:11 31° ENE 07:33:36 10° N
Cosmos 2237 Rocket 3.8 07:23:36 10° NNW 07:26:22 30° N 07:26:22 30° N
CZ-2D R/B 3.5 07:39:19 10° N 07:42:21 35° N 07:42:21 35° N
ADEOS II 3.5 07:41:30 10° NNE 07:44:44 35° NE 07:44:44 35° NE
SL-16 R/B 3.5 07:47:59 10° N 07:53:05 34° ENE 07:53:48 33° E
Cosmos 2263 Rocket 3.5 07:54:29 34° E 07:54:29 34° E 07:58:35 10° NE
CZ-3B R/B 4.3 08:05:07 50° SSE 08:05:07 50° SSE 08:12:20 10° E
Cosmos 2344 3.5 08:04:50 70° SE 08:05:06 71° ESE 08:12:28 10° NE
Cosmos 2327 Rocket 4.5 08:25:50 73° NW 08:25:50 73° NW 08:31:32 10° N
Nadezhda 3 Rocket 4.2 08:19:22 10° N 08:25:43 68° E 08:26:34 61° SE
Aurora 2 Rocket 4.5 08:28:21 57° SSW 08:28:49 58° SSW 08:37:35 10° ESE
IDEFIX/ARIANE 42P 2.6 08:31:45 10° NNE 08:36:25 73° NNE 08:36:25 73° NNE
CBERS-1 4.2 08:31:55 10° NNE 08:36:25 69° N 08:36:25 69° N
Lacrosse 5 4.3 08:37:08 11° NW 08:37:45 12° NW 08:39:30 10° NNW
ATLAS 5 CENTAUR R/B 4.4 08:34:35 10° NW 08:35:47 16° NW 08:35:47 16° NW
Cosmos 1378 Rocket 4.4 08:36:40 10° N 08:39:54 46° NNE 08:39:54 46° NNE
Cosmos 1908 Rocket 4.4 08:42:21 47° NNE 08:42:21 47° NNE 08:45:27 10° N
SL-16 R/B 3.5 08:45:15 31° WNW 08:45:15 31° WNW 08:48:59 10° NNW
Resurs 1-4 Rocket 4.1 08:42:30 10° NNW 08:44:30 15° NW 08:44:30 15° NW
USA 215 3.3 08:40:09 10° NE 08:46:40 69° SE 08:47:58 56° S
Cosmos 1190 Rocket 4.0 08:51:32 70° NW 08:51:32 70° NW 08:56:36 10° N
DELTA 2 DEB (DPAF) 4.4 08:53:13 61° N 08:53:13 61° N 08:56:54 10° NNW
Cosmos 1140 Rocket 3.9 08:54:55 49° NW 08:54:55 49° NW 08:59:34 10° N
CZ-4C R/B 3.7 09:04:26 59° ESE 09:04:48 63° ENE 09:08:55 10° N
Meteor 1-21 4.2 08:59:04 10° NNW 09:04:49 71° W 09:05:54 57° SSW
ASTRO E2 3.1 09:05:37 59° ENE 09:05:37 59° ENE 09:08:55 10° E
Cosmos 1954 Rocket 3.9 09:04:41 67° SSW 09:05:27 89° WNW 09:10:48 10° NNE
Cosmos 1844 Rocket 4.2 09:03:45 17° SSE 09:07:06 30° ESE 09:11:56 10° NE
MSX 3.8 09:03:26 10° N 09:09:06 65° WNW 09:10:10 54° SW
CZ-4B R/B 3.6 09:04:41 10° NNE 09:09:28 65° ESE 09:10:43 46° SSE
Okean 2 4.4 09:06:25 10° NNW 09:09:08 36° NW 09:09:08 36° NW
ERS-1 4.4 09:06:17 10° NNE 09:11:16 82° ESE 09:12:27 53° S
ARIANE 5 R/B 2.5 09:09:00 10° NNE 09:14:13 90° SE 09:15:40 49° SSW
ADEOS Rocket 4.2 09:16:09 21° WNW 09:16:09 21° WNW 09:18:47 10° NW
Milstar 3 3.0 09:15:44 40° SSW 09:17:45 52° SSE 09:24:14 10° E
Cosmos 864 Rocket 4.4 09:17:39 34° S 09:20:35 87° W 09:26:51 10° N
Cosmos 1959 Rocket 4.3 09:17:53 36° S 09:20:35 85° W 09:26:46 10° N
CZ-2D R/B 3.4 09:17:46 10° NNE 09:21:48 77° ESE 09:22:37 55° S
Cosmos 1782 Rocket 3.5 09:23:30 57° W 09:23:38 58° W 09:27:56 10° N
ADEOS II 3.9 09:22:52 10° NNW 09:25:41 15° WNW 09:25:41 15° WNW
Spot 4 Rocket 4.3 09:21:23 10° NNE 09:26:31 67° ESE 09:29:29 25° S
Sich 1 Rocket 4.0 09:24:30 28° SSE 09:26:37 58° E 09:30:56 10° NNE
SL-8 Rocket 4.0 09:24:57 39° SW 09:27:03 58° W 09:33:08 10° N
Cosmos 1805 3.2 09:26:33 58° S 09:27:14 83° E 09:31:08 10° N
CZ-2C R/B 4.1 09:25:04 10° NNE 09:28:31 35° E 09:30:40 19° SSE
Cosmos 2366 rocket 4.0 09:26:46 33° SSW 09:29:48 70° W 09:36:09 10° N
Delta 142 4.0 09:29:32 33° W 09:32:20 72° S 09:37:16 10° ESE
ATLAS CENTAUR R/B 2.7 09:33:49 23° NW 09:33:49 23° NW 09:36:46 10° N
Cosmos 676 Rocket 4.4 09:32:40 39° WSW 09:34:00 47° WNW 09:39:08 10° N
CZ-3 R/B 4.1 09:15:06 26° SW 09:34:25 53° SSE 09:44:13 10° E
SL-16 R/B 3.5 09:32:28 10° NW 09:35:34 22° W 09:35:34 22° W
Cosmos 2263 Rocket 3.5 09:36:12 22° W 09:37:21 23° WNW 09:41:49 10° N
KORONAS-FOTON 3.7 09:35:02 10° N 09:38:57 83° W 09:40:44 31° S
Cosmos 1707 4.4 09:43:17 10° NW 09:45:07 19° WNW 09:45:07 19° WNW
PAYLOAD A 4.0 09:42:22 10° N 09:47:46 76° WNW 09:51:18 21° SSW
Spot 1 4.3 09:47:00 34° SW 09:48:14 44° W 09:52:11 10° NNW
GEOS 3 Rocket 4.3 09:43:34 10° SE 09:48:48 58° NE 09:54:02 10° NNW
ALOS 2.5 09:47:43 10° NNE 09:52:22 68° E 09:56:47 11° S
CZ-4C R/B 3.1 09:44:51 10° NNW 09:52:46 86° WSW 10:01:29 10° SSE
Cosmos 1741 Rocket 4.0 09:49:35 19° SSW 09:53:23 85° ESE 09:58:39 10° NNE
Cosmos 1733 3.5 09:52:52 35° SW 09:54:03 47° W 09:57:46 10° N
Delta 128 3.6 09:51:46 28° WSW 09:54:05 71° S 09:59:06 10° E
SL-08 R/B 3.4 09:51:09 10° S 09:56:00 63° WSW 10:00:55 10° NNW
Cosmos 1766 3.2 09:54:23 28° SSW 09:56:15 64° W 10:00:06 10° N
Meteor 2-20 4.5 09:50:17 10° NNW 09:56:20 62° W 10:02:22 10° S
Cosmos 1470 4.4 09:53:50 10° SSE 09:57:24 34° E 10:00:59 10° NNE
Meteor 2-20 Rocket 4.4 09:54:53 10° N 10:01:02 82° W 10:07:11 10° S
Meteor 2-10 4.5 09:57:47 10° S 10:02:44 60° E 10:07:49 10° NNE
Cosmos 1300 Rocket 3.8 10:01:45 23° SW 10:04:03 46° W 10:08:14 10° N
Meteor 1-15 Rocket 4.5 10:00:39 16° SSW 10:05:16 57° W 10:11:04 10° N
Cosmos 1727 Rocket 4.0 10:03:02 10° N 10:09:16 79° W 10:15:32 10° S
USA 290 3.6 10:08:52 10° N 10:11:57 42° ENE 10:15:02 10° SE
Cosmos 1844 3.6 10:07:36 13° SSW 10:12:32 81° WNW 10:18:06 10° NNE
Cosmos 1975 Rocket 3.8 10:11:52 10° NNW 10:15:47 32° W 10:19:12 12° SSW
Cosmos 1484 Rocket 2.9 10:12:05 10° NNE 10:16:04 79° ESE 10:20:02 10° S
Cosmos 1943 3.3 10:11:09 10° NNW 10:16:41 55° WSW 10:22:12 10° S
Cosmos 1400 Rocket 4.2 10:16:10 17° WSW 10:17:21 20° WNW 10:20:15 10° NNW
Cosmos 1340 3.8 10:15:07 10° NW 10:18:10 24° W 10:20:00 17° SW
CZ-2C R/B 3.1 10:15:41 10° N 10:19:46 33° WNW 10:23:07 14° SW
CZ-3B R/B 3.0 10:12:03 13° WSW 10:20:59 60° S 10:25:33 10° ESE
SL-24 R/B - RUBIN 2 4.0 10:16:35 10° NNW 10:21:16 67° ENE 10:25:34 10° SE
Cosmos 1626 2.7 10:18:50 10° NNW 10:22:12 35° W 10:25:34 10° SSW
Cosmos 1315 Rocket 2.8 10:20:46 10° SSW 10:24:51 68° W 10:28:55 10° N
Okean 1 Rocket 3.4 10:21:00 10° S 10:25:19 68° E 10:29:43 10° NNE
Cosmos 1674 4.4 10:26:03 10° NW 10:28:28 16° W 10:30:00 13° WSW
SL-19 R/B 4.3 10:23:07 10° SSE 10:28:41 87° WSW 10:34:27 10° NNW
USA 215 4.5 10:23:48 10° NNE 10:29:15 29° NW 10:34:41 10° W
PSLV R/B 4.0 10:33:52 10° N 10:37:53 41° WNW 10:41:51 10° SW
Cosmos 2278 Rocket 4.3 10:34:13 10° SSE 10:38:52 27° ESE 10:43:30 10° NE
Cosmos 540 Rocket 4.2 10:35:28 10° N 10:40:35 60° ENE 10:45:40 10° SSE
METEOR-M 4.3 10:35:47 10° N 10:40:58 54° WNW 10:46:09 10° SSW
SeaSat 1 4.1 10:37:05 10° NE 10:41:32 33° ESE 10:45:56 10° S
Meteor 1-24 Rocket 3.8 10:37:37 10° N 10:43:33 86° W 10:49:14 10° S
Meteor 1-31 Rocket 3.8 10:40:54 10° NNE 10:44:35 48° E 10:48:16 10° S
ASTRO E2 2.8 10:41:28 10° W 10:45:26 74° N 10:49:24 10° E
Cosmos 468 Rocket 4.1 10:43:49 10° NNW 10:48:57 54° WSW 10:54:01 10° S
Cosmos 2123 Rocket 4.3 10:43:02 10° N 10:49:13 75° E 10:55:21 10° S
Cosmos 1025 Rocket 4.2 10:45:58 10° NW 10:49:27 24° W 10:52:57 10° SW
Meteor 2-5 Rocket 3.9 10:44:17 10° NNW 10:50:03 59° W 10:55:42 10° S
Cosmos 1844 Rocket 3.8 10:46:05 10° WSW 10:50:51 28° WNW 10:55:40 10° N
